LILACSAT-2

Last updated on Sun Jul 06 2025 00:03:05 GMT+0000 (Coordinated Universal Time)

1 40908U 15049K 25186.61443105 .00010288 00000+0 26449-3 0 9992 2 40908 97.5051 207.5959 0010832 72.9607 287.2824 15.39414364542231
UTC large
Height (km)
Speed (km/s)
/
Latitude / Longitude
Inclination (degrees)
Orbital Period (minutes)
Azimuth
Elevation
Range (km)
Doppler Factor

Next 0 passes for location: London (51.5072 / 0.1276)

Sorry there are no passes over London.